"2009-10-18 00:00:00",1336606,0.824,129.9,6.656,0.133,15.2,106.7336,16.51,17.57,14.37,0,110.7,13.25,17.32,91.9
"2009-10-18 00:00:30",1336607,0.685,135.9,3.653,0.123,15.19,106.7213,16.48,17.56,14.4,0,110.7,13.25,17.29,97.9
"2009-10-18 00:01:00",1336608,0.774,138.5,2.038,0.045,14.98,106.7207,16.48,17.55,14.39,0,110.7,13.25,17.29,100.5
"2009-10-18 00:01:30",1336609,0.788,136.7,2.469,0.072,15.05,106.7207,16.48,17.53,14.41,0,110.7,13.25,17.29,98.7
"2009-10-18 00:02:00",1336610,0.655,138.7,2.228,0.055,15.17,106.7207,16.48,17.52,14.42,0,110.7,13.25,17.29,100.7
"2009-10-18 00:02:30",1336611,0.662,142.5,3.455,0.053,15.17,106.7168,16.47,17.52,14.42,0,110.7,13.26,17.28,104.5
"2009-10-18 00:03:00",1336612,0.541,145.7,2.386,0.093,15.37,106.7032,16.43,17.5,14.43,0,110.7,13.26,17.24,107.7
"2009-10-18 00:03:30",1336613,0.653,146.5,3.707,0.071,15.14,106.6886,16.4,17.49,14.44,0,110.7,13.25,17.21,108.5
"2009-10-18 00:04:00",1336614,0.705,140.2,2.181,0.067,15.2,106.6869,16.39,17.48,14.45,0,110.7,13.25,17.20,102.2
"2009-10-18 00:04:30",1336615,0.634,146.9,4.739,0.078,15.25,106.6872,16.39,17.46,14.46,0,110.7,13.25,17.20,108.9
"2009-10-18 00:05:00",1336616,0.508,148.8,4.382,0.133,15.38,106.6869,16.39,17.45,14.49,0,110.7,13.25,17.20,110.8
"2009-10-18 00:05:30",1336617,0.427,139,6.383,0.066,15.55,106.6765,16.37,17.43,14.52,0,110.7,13.25,17.18,101.0
"2009-10-18 00:06:00",1336618,0.434,141,6.351,0.056,15.59,106.6586,16.32,17.41,14.54,0,110.7,13.25,17.13,103.0
"2009-10-18 00:06:30",1336619,0.454,146.6,8.95,0.079,15.6,106.655,16.31,17.41,14.57,0,110.7,13.25,17.12,108.6
"2009-10-18 00:07:00",1336620,0.395,157.6,7.57,0.084,15.74,106.6547,16.31,17.38,14.59,0,110.7,13.25,17.12,119.6
"2009-10-18 00:07:30",1336621,0.253,144.9,3.804,0.064,15.59,106.6544,16.31,17.37,14.62,0,110.7,13.25,17.12,106.9
"2009-10-18 00:08:00",1336622,0.278,131,5.084,0.067,15.53,106.6431,16.28,17.34,14.69,0,110.6,13.25,17.09,93.0
"2009-10-18 00:08:30",1336623,0.35,127.9,2.489,0.03,15.62,106.6333,16.26,17.33,14.8,0,110.6,13.25,17.06,89.9
"2009-10-18 00:09:00",1336624,0.383,129.9,4.372,0.062,15.79,106.6338,16.26,17.31,14.86,0,110.6,13.26,17.07,91.9
"2009-10-18 00:09:30",1336625,0.486,130.4,4.016,0.069,15.95,106.6401,16.27,17.29,14.85,0,110.6,13.26,17.08,92.4
"2009-10-18 00:10:00",1336626,0.575,125.5,3.697,0.031,15.99,106.6195,16.22,17.28,14.88,0,110.6,13.26,17.03,87.5
"2009-10-18 00:10:30",1336627,0.6,126.6,1.677,0.029,16.06,106.6126,16.2,17.24,14.92,0,110.6,13.26,17.01,88.6
"2009-10-18 00:11:00",1336628,0.597,131.3,4.394,0.049,16.11,106.6121,16.2,17.24,14.94,0,110.6,13.26,17.01,93.3
"2009-10-18 00:11:30",1336629,0.754,127.4,2.558,0.043,16.21,106.5916,16.15,17.2,14.94,0,110.6,13.26,16.96,89.4
"2009-10-18 00:12:00",1336630,0.591,133.5,6.423,0.062,16.22,106.5836,16.13,17.17,14.93,0,110.6,13.26,16.94,95.5
"2009-10-18 00:12:30",1336631,0.556,129.5,6.986,0.053,16.18,106.5793,16.12,17.15,14.92,0,110.6,13.26,16.93,91.5
"2009-10-18 00:13:00",1336632,0.568,117.9,5.707,0.034,16.08,106.5557,16.06,17.12,14.95,0,110.6,13.26,16.86,79.9
"2009-10-18 00:13:30",1336633,0.486,116.1,10.24,0.075,16.02,106.5541,16.05,17.08,15,0,110.6,13.26,16.86,78.1
"2009-10-18 00:14:00",1336634,0.512,105.1,3.525,0.042,15.97,106.5343,16,17.06,15.05,0,110.6,13.26,16.81,67.1
"2009-10-18 00:14:30",1336635,0.559,108.7,7.114,0.049,16,106.5203,15.97,17.03,15.16,0,110.6,13.27,16.77,70.7
"2009-10-18 00:15:00",1336636,0.842,89.7,5.551,0.148,16.04,106.5056,15.93,17,15.47,0,110.6,13.27,16.74,51.7
"2009-10-18 00:15:30",1336637,0.75,87.1,3.416,0.051,16.07,106.4865,15.88,16.97,15.74,0,110.6,13.26,16.69,49.1
"2009-10-18 00:16:00",1336638,0.92,92.4,7.634,0.093,16.14,106.4778,15.86,16.93,15.83,0,110.6,13.27,16.66,54.4
"2009-10-18 00:16:30",1336639,0.984,102.2,1.823,0.18,15.97,106.453,15.79,16.91,15.81,0,110.6,13.27,16.60,64.2
"2009-10-18 00:17:00",1336640,0.732,113.8,8.18,0.053,16.15,106.4448,15.77,16.86,15.72,0,110.6,13.27,16.58,75.8
"2009-10-18 00:17:30",1336641,0.639,114,8.41,0.074,16.15,106.4192,15.71,16.83,15.65,0,110.6,13.27,16.51,76.0
"2009-10-18 00:18:00",1336642,0.666,106.7,4.337,0.067,16.03,106.4122,15.69,16.79,15.68,0,110.6,13.27,16.50,68.7
"2009-10-18 00:18:30",1336643,0.642,92.4,2.219,0.061,16.27,106.3851,15.62,16.77,15.72,0,110.6,13.27,16.43,54.4
"2009-10-18 00:19:00",1336644,0.614,102.7,6.026,0.053,16.1,106.3767,15.6,16.72,15.73,0,110.6,13.27,16.40,64.7
"2009-10-18 00:19:30",1336645,0.652,110.3,4.154,0.067,16.05,106.3513,15.53,16.67,15.82,0,110.6,13.27,16.34,72.3
"2009-10-18 00:20:00",1336646,0.51,101.8,7.435,0.058,16.15,106.344,15.51,16.65,15.87,0,110.6,13.27,16.32,63.8
"2009-10-18 00:20:30",1336647,0.543,99.4,5.043,0.03,16.25,106.3176,15.45,16.6,15.92,0,110.6,13.27,16.25,61.4
"2009-10-18 00:21:00",1336648,0.414,108.5,1.668,0.039,16.12,106.3107,15.43,16.58,15.84,0,110.6,13.27,16.23,70.5
"2009-10-18 00:21:30",1336649,0.447,94,4.913,0.073,16.35,106.2937,15.39,16.53,15.84,0,110.6,13.27,16.19,56.0
"2009-10-18 00:22:00",1336650,0.707,86.7,3.248,0.078,16.27,106.2951,15.39,16.48,15.94,0,110.6,13.27,16.19,48.7
"2009-10-18 00:22:30",1336651,0.702,85.7,2.656,0.044,16.27,106.2733,15.33,16.45,16.21,0,110.5,13.27,16.14,47.7
"2009-10-18 00:23:00",1336652,0.813,91.8,4.541,0.075,16.28,106.2694,15.32,16.43,16.3,0,110.5,13.27,16.13,53.8
"2009-10-18 00:23:30",1336653,0.765,96.1,2.303,0.035,16.27,106.2497,15.27,16.38,16.35,0,110.5,13.27,16.08,58.1
"2009-10-18 00:24:00",1336654,0.854,93.8,1.016,0.033,16.28,106.2475,15.27,16.35,16.42,0,110.5,13.27,16.07,55.8
"2009-10-18 00:24:30",1336655,0.923,90,2.188,0.04,16.28,106.222,15.2,16.3,16.66,0,110.5,13.27,16.01,52.0
"2009-10-18 00:25:00",1336656,1.047,87.8,1.677,0.083,16.28,106.2172,15.19,16.27,16.86,0,110.5,13.28,15.99,49.8
"2009-10-18 00:25:30",1336657,1.308,85.3,2.305,0.139,16.11,106.1899,15.12,16.23,16.99,0,110.5,13.28,15.92,47.3
"2009-10-18 00:26:00",1336658,1.426,82.7,2.135,0.043,16.05,106.1817,15.1,16.19,17.12,0,110.5,13.28,15.90,44.7
"2009-10-18 00:26:30",1336659,1.501,84.7,2.173,0.078,16.11,106.1555,15.03,16.17,17.22,0,110.5,13.28,15.84,46.7
"2009-10-18 00:27:00",1336660,1.527,86.2,2.653,0.066,16.16,106.1507,15.02,16.13,17.35,0,110.5,13.28,15.82,48.2
"2009-10-18 00:27:30",1336661,1.462,88.9,0.978,0.05,16.16,106.133,14.97,16.1,17.38,0,110.5,13.29,15.78,50.9
"2009-10-18 00:28:00",1336662,1.573,88.3,0.964,0.068,16.22,106.1169,14.93,16.04,17.41,0,110.5,13.29,15.74,50.3
"2009-10-18 00:28:30",1336663,1.639,87.4,1.575,0.073,16.21,106.111,14.92,16.03,17.53,0,110.5,13.29,15.72,49.4
"2009-10-18 00:29:00",1336664,1.43,91.5,2.571,0.101,16.2,106.0862,14.85,15.98,17.56,0,110.5,13.29,15.66,53.5
"2009-10-18 00:29:30",1336665,1.183,97.5,1.115,0.055,16.09,106.0829,14.85,15.95,17.42,0,110.5,13.29,15.65,59.5
"2009-10-18 00:30:00",1336666,1.101,99.9,2.442,0.051,16.12,106.0614,14.79,15.92,17.34,0,110.5,13.29,15.59,61.9
"2009-10-18 00:30:30",1336667,1.048,105.6,1.277,0.041,16.13,106.0493,14.76,15.91,17.27,0,110.5,13.3,15.56,67.6
"2009-10-18 00:31:00",1336668,1.011,106.9,2.48,0.041,16.15,106.0474,14.75,15.87,17.21,0,110.5,13.3,15.56,68.9
"2009-10-18 00:31:30",1336669,0.876,106.4,1.31,0.029,16.23,106.0288,14.71,15.84,17.13,0,110.5,13.3,15.51,68.4
"2009-10-18 00:32:00",1336670,0.804,106.6,0.67,0.025,16.2,106.0206,14.69,15.8,17.11,0,110.5,13.3,15.49,68.6
"2009-10-18 00:32:30",1336671,0.766,107.1,0.523,0.028,16.18,106.0248,14.7,15.79,17.22,0,110.5,13.3,15.50,69.1
"2009-10-18 00:33:00",1336672,0.683,111.8,1.797,0.035,16.08,106.0071,14.65,15.76,17.31,0,110.5,13.3,15.45,73.8
"2009-10-18 00:33:30",1336673,0.662,115.3,1.301,0.031,16.2,106.0047,14.64,15.74,17.25,0,110.5,13.3,15.45,77.3
"2009-10-18 00:34:00",1336674,0.557,122,3.052,0.074,16.32,106.0095,14.66,15.72,17.21,0,110.5,13.3,15.46,84.0
"2009-10-18 00:34:30",1336675,0.493,130.2,2.6,0.05,16.4,106.0068,14.65,15.7,17.17,0,110.5,13.3,15.45,92.2
"2009-10-18 00:35:00",1336676,0.493,134.4,2.744,0.047,16.45,105.9848,14.59,15.66,17.11,0,110.5,13.3,15.40,96.4
"2009-10-18 00:35:30",1336677,0.387,136.7,2.242,0.041,16.47,105.9838,14.59,15.63,17.08,0,110.5,13.3,15.39,98.7
"2009-10-18 00:36:00",1336678,0.498,130.9,1.599,0.037,16.43,105.9824,14.59,15.63,17.07,0,110.5,13.3,15.39,92.9
"2009-10-18 00:36:30",1336679,0.528,129.3,4.137,0.052,16.42,105.9671,14.55,15.6,17.15,0,110.5,13.3,15.35,91.3
"2009-10-18 00:37:00",1336680,0.467,138.2,5.025,0.05,16.48,105.95,14.5,15.59,17.2,0,110.5,13.3,15.31,100.2
"2009-10-18 00:37:30",1336681,0.586,123.6,3.544,0.056,16.4,105.95,14.5,15.58,17.24,0,110.5,13.3,15.31,85.6
"2009-10-18 00:38:00",1336682,0.616,121.4,2.873,0.047,16.39,105.9435,14.49,15.55,17.3,0,110.5,13.3,15.29,83.4
"2009-10-18 00:38:30",1336683,0.596,122.6,2.554,0.032,16.4,105.9224,14.43,15.54,17.41,0,110.4,13.3,15.24,84.6
"2009-10-18 00:39:00",1336684,0.65,118.9,3.604,0.045,16.35,105.9162,14.42,15.53,17.54,0,110.4,13.3,15.22,80.9
"2009-10-18 00:39:30",1336685,0.593,116.5,2.281,0.041,16.22,105.9159,14.42,15.49,17.62,0,110.4,13.3,15.22,78.5
"2009-10-18 00:40:00",1336686,0.571,113.3,2.676,0.044,16.21,105.904,14.39,15.47,17.67,0,110.4,13.3,15.19,75.3
"2009-10-18 00:40:30",1336687,0.576,108.8,2.934,0.036,16.17,105.8832,14.33,15.44,17.76,0,110.4,13.3,15.14,70.8
"2009-10-18 00:41:00",1336688,0.576,104.1,4.957,0.073,16.16,105.8823,14.33,15.43,17.83,0,110.4,13.3,15.13,66.1
"2009-10-18 00:41:30",1336689,0.579,102.5,4.185,0.031,16.18,105.8824,14.33,15.4,17.87,0,110.4,13.3,15.13,64.5
"2009-10-18 00:42:00",1336690,0.576,102.6,1.958,0.042,16.14,105.8733,14.31,15.38,17.95,0,110.4,13.31,15.11,64.6
"2009-10-18 00:42:30",1336691,0.604,102.9,1.836,0.025,16.08,105.854,14.26,15.37,18,0,110.4,13.31,15.06,64.9
"2009-10-18 00:43:00",1336692,0.658,103.6,1.304,0.018,16.02,105.8503,14.25,15.36,18.03,0,110.4,13.31,15.05,65.6
"2009-10-18 00:43:30",1336693,0.7,101.6,0.823,0.037,16.05,105.854,14.26,15.35,18.08,0,110.4,13.31,15.06,63.6
"2009-10-18 00:44:00",1336694,0.746,101.2,0.649,0.002,16.09,105.846,14.24,15.33,18.15,0,110.4,13.32,15.04,63.2
"2009-10-18 00:44:30",1336695,0.747,102.6,1.076,0.012,16.09,105.8317,14.2,15.29,18.23,0,110.4,13.32,15.00,64.6
"2009-10-18 00:45:00",1336696,0.759,102.5,1.21,0.026,16.12,105.8362,14.21,15.29,18.27,0,110.4,13.32,15.01,64.5
"2009-10-18 00:45:30",1336697,0.745,101.2,1.675,0,16.07,105.8401,14.22,15.27,18.34,0,110.4,13.32,15.02,63.2
"2009-10-18 00:46:00",1336698,0.71,101.9,1.153,0.036,16.04,105.8333,14.21,15.25,18.41,0,110.4,13.32,15.01,63.9
"2009-10-18 00:46:30",1336699,0.651,103,0.704,0.032,16,105.814,14.16,15.23,18.42,0,110.4,13.32,14.96,65.0
"2009-10-18 00:47:00",1336700,0.599,104.1,1.263,0.012,16.04,105.8161,14.16,15.2,18.4,0,110.4,13.32,14.96,66.1
"2009-10-18 00:47:30",1336701,0.543,103.3,1.569,0.021,16.17,105.8164,14.16,15.18,18.36,0,110.4,13.32,14.96,65.3
"2009-10-18 00:48:00",1336702,0.484,100.5,0.896,0.036,16.27,105.8097,14.15,15.18,18.37,0,110.4,13.32,14.95,62.5
"2009-10-18 00:48:30",1336703,0.446,100.1,0.693,0.022,16.29,105.7888,14.09,15.16,18.39,0,110.4,13.32,14.89,62.1
"2009-10-18 00:49:00",1336704,0.48,99.1,1.424,0.036,16.26,105.7829,14.08,15.15,18.45,0,110.4,13.32,14.88,61.1
"2009-10-18 00:49:30",1336705,0.453,97.6,1.145,0,16.27,105.7829,14.08,15.12,18.63,0,110.4,13.33,14.88,59.6
"2009-10-18 00:50:00",1336706,0.453,93.1,0.998,0,16.32,105.782,14.07,15.12,18.86,0,110.4,13.33,14.88,55.1
"2009-10-18 00:50:30",1336707,0.417,90.2,1.784,0.038,16.33,105.7654,14.03,15.09,19.08,0,110.4,13.33,14.83,52.2
"2009-10-18 00:51:00",1336708,0.392,87,1.819,0.04,16.36,105.7491,13.99,15.08,19.27,0,110.4,13.33,14.79,49.0
"2009-10-18 00:51:30",1336709,0.339,87.3,1.196,0.027,16.4,105.7491,13.99,15.06,19.43,0,110.4,13.33,14.79,49.3
"2009-10-18 00:52:00",1336710,0.353,87.3,2.542,0.033,16.41,105.7479,13.99,15.03,19.54,0,110.4,13.33,14.79,49.3
"2009-10-18 00:52:30",1336711,0.397,84,1.735,0.046,16.29,105.7347,13.95,15.02,19.68,0,110.4,13.33,14.75,46.0
"2009-10-18 00:53:00",1336712,0.294,87.7,2.586,0.045,16.31,105.7152,13.9,15.01,19.84,0,110.4,13.33,14.70,49.7
"2009-10-18 00:53:30",1336713,0.371,93.9,3.824,0.055,16.33,105.7152,13.9,14.99,19.9,0,110.4,13.33,14.70,55.9
"2009-10-18 00:54:00",1336714,0.464,97.9,1.576,0.037,16.25,105.7141,13.9,14.97,19.9,0,110.4,13.33,14.70,59.9
"2009-10-18 00:54:30",1336715,0.536,101.9,1.457,0.004,16.24,105.6904,13.84,14.96,19.98,0,110.4,13.33,14.64,63.9
"2009-10-18 00:55:00",1336716,0.546,104,2.094,0.021,16.21,105.682,13.82,14.93,20.02,0,110.4,13.32,14.62,66.0
"2009-10-18 00:55:30",1336717,0.527,107.9,0.847,0.022,16.23,105.6835,13.82,14.92,20,0,110.4,13.32,14.62,69.9
"2009-10-18 00:56:00",1336718,0.477,107,1.11,0.027,16.26,105.6847,13.83,14.9,19.96,0,110.4,13.32,14.63,69.0
"2009-10-18 00:56:30",1336719,0.456,105.6,1.31,0.02,16.27,105.6696,13.79,14.88,19.93,0,110.4,13.33,14.59,67.6
"2009-10-18 00:57:00",1336720,0.405,102.9,1.734,0.025,16.32,105.6625,13.77,14.86,19.88,0,110.4,13.33,14.57,64.9
"2009-10-18 00:57:30",1336721,0.389,101.3,0.934,0.012,16.47,105.6676,13.78,14.85,19.82,0,110.4,13.33,14.58,63.3
"2009-10-18 00:58:00",1336722,0.369,100.9,1.318,0.03,16.46,105.6705,13.79,14.82,19.84,0,110.4,13.33,14.59,62.9
"2009-10-18 00:58:30",1336723,0.345,99.8,1.038,0.028,16.49,105.6625,13.77,14.82,19.84,0,110.4,13.33,14.57,61.8
"2009-10-18 00:59:00",1336724,0.325,98.2,2.56,0.012,16.47,105.646,13.73,14.8,19.85,0,110.4,13.33,14.53,60.2
"2009-10-18 00:59:30",1336725,0.331,98.3,0.921,0.022,16.47,105.6442,13.72,14.77,19.89,0,110.4,13.33,14.52,60.3
"2009-10-18 01:00:00",1336726,0.35,100.6,2.387,0.032,16.46,105.6468,13.73,14.76,19.93,0,110.4,13.33,14.53,62.6
"2009-10-18 01:00:30",1336727,0.402,96.2,0.59,0.025,16.27,105.6464,13.73,14.74,19.98,0,110.4,13.34,14.53,58.2
"2009-10-18 01:01:00",1336728,0.455,97.9,0.746,0.027,16.29,105.6273,13.68,14.73,20.12,0,110.4,13.34,14.48,59.9
"2009-10-18 01:01:30",1336729,0.47,99.6,0.714,0.013,16.27,105.6157,13.65,14.72,20.21,0,110.4,13.34,14.45,61.6
"2009-10-18 01:02:00",1336730,0.499,100.1,0.783,0.037,16.26,105.6157,13.65,14.7,20.28,0,110.4,13.34,14.45,62.1
"2009-10-18 01:02:30",1336731,0.518,100.9,1.648,0.031,16.25,105.6157,13.65,14.69,20.37,0,110.4,13.34,14.45,62.9
"2009-10-18 01:03:00",1336732,0.562,106,1.455,0.031,16.19,105.6117,13.64,14.68,20.43,0,110.4,13.34,14.44,68.0
"2009-10-18 01:03:30",1336733,0.535,109.7,1.332,0.004,16.14,105.6007,13.61,14.65,20.42,0,110.4,13.34,14.41,71.7
"2009-10-18 01:04:00",1336734,0.536,111.7,1.766,0.003,16.12,105.5836,13.57,14.65,20.45,0,110.4,13.34,14.37,73.7
"2009-10-18 01:04:30",1336735,0.492,115.8,1.621,0.035,16.22,105.5819,13.56,14.63,20.43,0,110.3,13.34,14.36,77.8
"2009-10-18 01:05:00",1336736,0.486,118.8,0.905,0.037,16.24,105.5819,13.56,14.61,20.35,0,110.3,13.34,14.36,80.8
"2009-10-18 01:05:30",1336737,0.528,121.1,0.808,0,16.24,105.5793,13.56,14.6,20.31,0,110.3,13.34,14.35,83.1
"2009-10-18 01:06:00",1336738,0.516,125,2.69,0.028,16.34,105.5675,13.53,14.57,20.26,0,110.3,13.34,14.32,87.0
"2009-10-18 01:06:30",1336739,0.462,125.9,1.011,0.025,16.36,105.55,13.48,14.58,20.19,0,110.3,13.34,14.28,87.9
"2009-10-18 01:07:00",1336740,0.46,129,0.96,0.023,16.4,105.548,13.48,14.55,20.11,0,110.3,13.34,14.27,91.0
"2009-10-18 01:07:30",1336741,0.453,129.9,0.885,0,16.4,105.548,13.48,14.55,20.04,0,110.3,13.34,14.27,91.9
"2009-10-18 01:08:00",1336742,0.453,133.3,1.343,0,16.41,105.548,13.48,14.54,19.99,0,110.3,13.35,14.27,95.3
"2009-10-18 01:08:30",1336743,0.453,135,1.019,0,16.38,105.5455,13.47,14.52,19.92,0,110.3,13.35,14.27,97.0
"2009-10-18 01:09:00",1336744,0.415,131.6,1.407,0.038,16.39,105.5308,13.43,14.51,19.85,0,110.3,13.35,14.23,93.6
"2009-10-18 01:09:30",1336745,0.377,130.1,0.49,0,16.36,105.5156,13.39,14.5,19.87,0,110.3,13.35,14.19,92.1
"2009-10-18 01:10:00",1336746,0.377,131.3,1.049,0,16.36,105.5145,13.39,14.48,19.93,0,110.3,13.35,14.19,93.3
"2009-10-18 01:10:30",1336747,0.438,133,0.637,0.031,16.43,105.5157,13.39,14.45,19.93,0,110.3,13.35,14.19,95.0
"2009-10-18 01:11:00",1336748,0.473,131.1,0.721,0.032,16.46,105.5157,13.39,14.46,20.05,0,110.3,13.35,14.19,93.1
"2009-10-18 01:11:30",1336749,0.537,130.7,1.061,0.003,16.43,105.5162,13.39,14.45,20.21,0,110.3,13.35,14.19,92.7
"2009-10-18 01:12:00",1336750,0.551,131.9,1.086,0.028,16.47,105.5042,13.36,14.44,20.16,0,110.3,13.35,14.16,93.9
"2009-10-18 01:12:30",1336751,0.602,132,0.928,0.004,16.46,105.4893,13.32,14.43,20.09,0,110.3,13.35,14.12,94.0
"2009-10-18 01:13:00",1336752,0.603,131.3,1.58,0.018,16.49,105.4902,13.33,14.4,19.98,0,110.3,13.35,14.13,93.3
"2009-10-18 01:13:30",1336753,0.563,133,0.872,0.032,16.48,105.4908,13.33,14.41,19.87,0,110.3,13.35,14.13,95.0
"2009-10-18 01:14:00",1336754,0.571,133.7,1.498,0.032,16.49,105.4923,13.33,14.4,19.69,0,110.3,13.35,14.13,95.7
"2009-10-18 01:14:30",1336755,0.56,134.5,1.128,0.031,16.47,105.4926,13.33,14.38,19.59,0,110.3,13.35,14.13,96.5
"2009-10-18 01:15:00",1336756,0.537,137.7,1.493,0.003,16.44,105.4865,13.32,14.37,19.52,0,110.3,13.35,14.12,99.7
"2009-10-18 01:15:30",1336757,0.528,139.6,2.034,0.014,16.42,105.4684,13.27,14.35,19.47,0,110.3,13.35,14.07,101.6
"2009-10-18 01:16:00",1336758,0.518,143.2,3.477,0.025,16.42,105.4709,13.28,14.35,19.44,0,110.3,13.35,14.08,105.2
"2009-10-18 01:16:30",1336759,0.514,147.4,2.698,0.033,16.44,105.4751,13.29,14.33,19.37,0,110.3,13.36,14.09,109.4
"2009-10-18 01:17:00",1336760,0.548,146.3,2.663,0.024,16.38,105.4787,13.3,14.34,19.37,0,110.3,13.36,14.10,108.3
"2009-10-18 01:17:30",1336761,0.581,148.5,2.261,0.027,16.33,105.4807,13.3,14.32,19.34,0,110.3,13.36,14.10,110.5
"2009-10-18 01:18:00",1336762,0.62,145.7,1.387,0.031,16.29,105.4791,13.3,14.29,19.35,0,110.3,13.36,14.10,107.7
"2009-10-18 01:18:30",1336763,0.668,141.9,2.247,0.029,16.28,105.4667,13.27,14.32,19.38,0,110.3,13.36,14.07,103.9
"2009-10-18 01:19:00",1336764,0.687,143,1.41,0.035,16.25,105.4515,13.23,14.27,19.4,0,110.3,13.36,14.03,105.0
"2009-10-18 01:19:30",1336765,0.681,133.2,4.215,0.024,16.37,105.4487,13.22,14.28,19.5,0,110.3,13.36,14.02,95.2
"2009-10-18 01:20:00",1336766,0.757,131.3,1.207,0.045,16.32,105.4484,13.22,14.28,19.74,0,110.3,13.36,14.02,93.3
"2009-10-18 01:20:30",1336767,0.805,130.9,1.632,0.024,16.29,105.4484,13.22,14.25,19.93,0,110.3,13.36,14.02,92.9
"2009-10-18 01:21:00",1336768,0.824,129.3,0.967,0.031,16.25,105.4484,13.22,14.26,20.1,0,110.3,13.36,14.02,91.3
"2009-10-18 01:21:30",1336769,0.872,127.4,1.84,0.016,16.28,105.4484,13.22,14.24,20.34,0,110.3,13.36,14.02,89.4
"2009-10-18 01:22:00",1336770,0.855,129,0.965,0.028,16.21,105.4481,13.22,14.24,20.51,0,110.3,13.36,14.02,91.0
"2009-10-18 01:22:30",1336771,0.848,128,0.738,0.033,16.24,105.4458,13.21,14.24,20.61,0,110.3,13.36,14.01,90.0
"2009-10-18 01:23:00",1336772,0.817,127.6,0.542,0.036,16.24,105.4425,13.21,14.24,20.73,0,110.3,13.36,14.00,89.6
"2009-10-18 01:23:30",1336773,0.763,128.5,0.647,0.029,16.24,105.4374,13.19,14.22,20.85,0,110.3,13.36,13.99,90.5
"2009-10-18 01:24:00",1336774,0.735,128.1,0.473,0.002,16.25,105.4351,13.19,14.23,20.94,0,110.3,13.36,13.98,90.1
"2009-10-18 01:24:30",1336775,0.665,128.7,0.847,0.033,16.34,105.4374,13.19,14.22,21.03,0,110.3,13.36,13.99,90.7
"2009-10-18 01:25:00",1336776,0.563,129.8,0.335,0.028,16.35,105.4365,13.19,14.21,21.08,0,110.3,13.36,13.99,91.8
"2009-10-18 01:25:30",1336777,0.528,130.1,1.116,0,16.37,105.4337,13.18,14.22,21.12,0,110.3,13.36,13.98,92.1
"2009-10-18 01:26:00",1336778,0.453,130.4,0.66,0.019,16.4,105.4278,13.17,14.22,21.12,0,110.3,13.36,13.97,92.4
"2009-10-18 01:26:30",1336779,0.377,130.8,0.661,0,16.36,105.4219,13.15,14.21,21.09,0,110.3,13.36,13.95,92.8
"2009-10-18 01:27:00",1336780,0.378,129.4,1.278,0.004,16.38,105.4151,13.14,14.21,21.08,0,110.3,13.36,13.93,91.4
"2009-10-18 01:27:30",1336781,0.389,126.5,1.444,0.02,16.35,105.4146,13.13,14.21,21.18,0,110.3,13.36,13.93,88.5
"2009-10-18 01:28:00",1336782,0.391,128,1.163,0.022,16.37,105.4146,13.13,14.2,21.29,0,110.3,13.36,13.93,90.0
"2009-10-18 01:28:30",1336783,0.387,130.1,1.004,0.011,16.31,105.4146,13.13,14.21,21.34,0,110.3,13.36,13.93,92.1
"2009-10-18 01:29:00",1336784,0.388,130.6,0.85,0.02,16.3,105.4146,13.13,14.2,21.35,0,110.3,13.36,13.93,92.6
"2009-10-18 01:29:30",1336785,0.392,132,0.894,0.005,16.33,105.4146,13.13,14.2,21.4,0,110.3,13.36,13.93,94.0
"2009-10-18 01:30:00",1336786,0.395,133.8,0.721,0.015,16.33,105.4146,13.13,14.2,21.48,0,110.3,13.36,13.93,95.8
"2009-10-18 01:30:30",1336787,0.455,132.7,0.904,0.023,16.45,105.4146,13.13,14.19,21.6,0,110.3,13.36,13.93,94.7
"2009-10-18 01:31:00",1336788,0.487,131.6,0.2,0.034,16.38,105.4146,13.13,14.18,21.7,0,110.3,13.36,13.93,93.6
"2009-10-18 01:31:30",1336789,0.55,130.3,1.113,0.025,16.41,105.4146,13.13,14.19,21.8,0,110.3,13.36,13.93,92.3
"2009-10-18 01:32:00",1336790,0.607,128.6,0.584,0.027,16.38,105.4143,13.13,14.17,21.91,0,110.3,13.36,13.93,90.6
"2009-10-18 01:32:30",1336791,0.663,127.6,0.63,0.004,16.39,105.4081,13.12,14.18,21.92,0,110.3,13.37,13.91,89.6
"2009-10-18 01:33:00",1336792,0.694,127,0.449,0.038,16.29,105.4019,13.1,14.17,21.91,0,110.3,13.37,13.90,89.0
"2009-10-18 01:33:30",1336793,0.682,127.1,0.574,0.028,16.33,105.3944,13.08,14.16,21.89,0,110.3,13.37,13.88,89.1
"2009-10-18 01:34:00",1336794,0.671,127,0.566,0.003,16.38,105.3901,13.07,14.16,21.84,0,110.3,13.37,13.87,89.0
"2009-10-18 01:34:30",1336795,0.661,127.2,0.519,0.029,16.42,105.3884,13.07,14.16,21.81,0,110.3,13.38,13.86,89.2
"2009-10-18 01:35:00",1336796,0.606,128.5,0.597,0.023,16.37,105.3908,13.07,14.15,21.77,0,110.3,13.38,13.87,90.5
"2009-10-18 01:35:30",1336797,0.601,130.2,0.693,0.014,16.41,105.3908,13.07,14.14,21.76,0,110.3,13.38,13.87,92.2
"2009-10-18 01:36:00",1336798,0.569,132,0.873,0.033,16.46,105.3932,13.08,14.14,21.77,0,110.3,13.38,13.88,94.0
"2009-10-18 01:36:30",1336799,0.531,133.8,0.757,0.006,16.47,105.3953,13.08,14.12,21.79,0,110.3,13.38,13.88,95.8
"2009-10-18 01:37:00",1336800,0.535,135.7,0.853,0.014,16.49,105.3971,13.09,14.13,21.81,0,110.3,13.38,13.89,97.7
"2009-10-18 01:37:30",1336801,0.467,138,0.502,0.019,16.47,105.3988,13.09,14.12,21.85,0,110.3,13.38,13.89,100.0
"2009-10-18 01:38:00",1336802,0.457,139.3,0.92,0.005,16.44,105.4012,13.1,14.12,21.9,0,110.3,13.38,13.90,101.3
"2009-10-18 01:38:30",1336803,0.453,138.2,1.336,0,16.41,105.4081,13.12,14.11,21.97,0,110.3,13.38,13.91,100.2
"2009-10-18 01:39:00",1336804,0.415,137.3,1.125,0.038,16.35,105.4072,13.11,14.11,22.06,0,110.3,13.38,13.91,99.3
"2009-10-18 01:39:30",1336805,0.377,138.2,1.795,0,16.27,105.4084,13.12,14.11,22.12,0,110.3,13.38,13.92,100.2
"2009-10-18 01:40:00",1336806,0.377,135.8,1.162,0,16.28,105.4065,13.11,14.1,22.14,0,110.3,13.38,13.91,97.8
"2009-10-18 01:40:30",1336807,0.377,134.7,0.02,0,16.34,105.3984,13.09,14.11,22.17,0,110.3,13.38,13.89,96.7
"2009-10-18 01:41:00",1336808,0.377,134.8,0.266,0,16.35,105.3876,13.06,14.1,22.2,0,110.3,13.38,13.86,96.8
"2009-10-18 01:41:30",1336809,0.377,133.8,0.89,0,16.38,105.3819,13.05,14.09,22.2,0,110.3,13.38,13.85,95.8
"2009-10-18 01:42:00",1336810,0.377,131.4,0.513,0,16.42,105.3819,13.05,14.08,22.2,0,110.3,13.38,13.85,93.4
"2009-10-18 01:42:30",1336811,0.377,129.5,1.326,0,16.42,105.3825,13.05,14.08,22.22,0,110.3,13.38,13.85,91.5
"2009-10-18 01:43:00",1336812,0.377,126.9,1.629,0,16.34,105.3825,13.05,14.07,22.24,0,110.3,13.38,13.85,88.9
"2009-10-18 01:43:30",1336813,0.381,123,2.612,0.014,16.32,105.3825,13.05,14.06,22.25,0,110.3,13.38,13.85,85.0
"2009-10-18 01:44:00",1336814,0.455,117,2.864,0.044,16.27,105.3825,13.05,14.07,22.27,0,110.3,13.38,13.85,79.0
"2009-10-18 01:44:30",1336815,0.519,112.3,1.454,0.032,16.24,105.3825,13.05,14.05,22.28,0,110.3,13.38,13.85,74.3
"2009-10-18 01:45:00",1336816,0.533,111.6,0.398,0.005,16.23,105.3825,13.05,14.04,22.27,0,110.3,13.38,13.85,73.6
"2009-10-18 01:45:30",1336817,0.53,111.6,0.549,0.022,16.28,105.3803,13.05,14.04,22.32,0,110.3,13.38,13.84,73.6
"2009-10-18 01:46:00",1336818,0.508,111.5,0.891,0.036,16.28,105.3758,13.03,14.03,22.34,0,110.3,13.38,13.83,73.5
"2009-10-18 01:46:30",1336819,0.486,111.3,1.236,0.031,16.29,105.3673,13.01,14.04,22.32,0,110.3,13.38,13.81,73.3
"2009-10-18 01:47:00",1336820,0.465,111.4,0.754,0.004,16.31,105.3617,13,14.03,22.33,0,110.3,13.38,13.80,73.4
"2009-10-18 01:47:30",1336821,0.464,111.5,1.429,0.003,16.3,105.3554,12.98,14.03,22.34,0,110.3,13.38,13.78,73.5
"2009-10-18 01:48:00",1336822,0.462,111.8,2.116,0.018,16.29,105.3498,12.97,14.02,22.35,0,110.3,13.38,13.77,73.8